Hourly Data Report for April 17, 2021

CLYDE RIVER A
NUNAVUT
Current Station Operator: NAVCAN

70°29'09.000" N
68°31'01.000" W
26.50 m
2400804
71090
YCY

Download Data

Hourly Data (April 2021)
Hourly Data Report for April 17, 2021
TIME
LST
Temp Definition
°C
Dew Point Definition
°C
Rel Hum Definition
%
Precip. Amount Definition
mm

Wind Dir Definition
10's deg

Wind Spd Definition
km/h
Visibility Definition
km
Stn Press Definition
kPa
Hmdx Definition


Wind Chill Definition


Weather Definition


00:00 -14.5 -17.9 76 0.0 27 24 16.1 100.39   -24 LegendNANA
01:00 -14.6 -17.5 79 0.0 22 13 16.1 100.37   -22 LegendNANA
02:00 -14.5 -18.4 72 0.0 24 9 16.1 100.41   -20 LegendNANA
03:00 -15.8 -19.0 77 0.0 25 13 16.1 100.41   -23 LegendNANA
04:00 -16.0 -20.2 71 0.0 26 9 16.1 100.43   -22 LegendNANA
05:00 -17.0 -20.2 77 0.0 25 13 16.1 100.44   -25 LegendNANA
06:00 -16.2 -20.3 71 0.0 26 13 16.1 100.47   -24 LegendNANA
07:00 -15.5 -19.7 71 0.0 27 13 16.1 100.51   -23 LegendNANA
08:00 -14.7 -19.0 70 0.0 27 5 16.1 100.52   -18 LegendNANA
09:00 -14.6 -18.4 73 0.0 24 9 16.1 100.55   -20 LegendNANA
10:00 -13.7 -17.3 75 0.0 24 8 16.1 100.56   -19 LegendNANA
11:00 -12.9 -16.2 76 0.0 25 9 16.1 100.56   -18 LegendNANA
12:00 -11.9 -16.3 70 0.0 28 5 16.1 100.58   -15 LegendNANA
13:00 -11.8 -14.4 81 0.0 36 17 16.1 100.66   -19 LegendNANA
14:00 -13.0 -15.9 79 0.0 34 21 16.1 100.75   -22 LegendNANA
15:00 -12.8 -15.3 82 0.0 33 28 16.1 100.83   -23 LegendNANA
16:00 -13.2 -15.7 82 0.0 34 28 11.3 100.90   -23 LegendNANA
17:00 -13.5 -15.5 85 0.0 32 28 16.1 100.98   -24 LegendNANA
18:00 -13.9 -15.6 87 0.0 33 22 16.1 101.03   -23 LegendNANA
19:00 -14.2 -15.8 88 0.0 33 24 16.1 101.06   -24 Snow
20:00 -14.5 -16.1 88 0.0 34 17 16.1 101.10   -23 LegendNANA
21:00 -14.7 -16.3 88 0.0 34 22 16.1 101.14   -24 Snow
22:00 -14.7 -16.3 88 0.0 32 15 16.1 101.18   -23 LegendNANA
23:00 -14.7 -16.4 87 0.0 29 15 16.1 101.22   -23 LegendNANA

Notes on Data Quality.

Legend

  • E = Estimated
  • M = Missing
  • NA = Not Available*
  • [empty] = Indicates an unobserved value
Date modified: